Waarnemingen

Advertentie
Mijn weer
Kuggören, Zweden (2355): temperatuur & dauwpunt: 11.07.2019 00:00:00 - 17.07.2019 00:00:00 (CEST)Kuggören, Zweden (2355): windsnelheid & windstoten: 11.07.2019 00:00:00 - 17.07.2019 00:00:00 (CEST)Kuggören, Zweden (2355): windrichting: 11.07.2019 00:00:00 - 17.07.2019 00:00:00 (CEST)Kuggören, Zweden (2355): luchtdruk: 11.07.2019 00:00:00 - 17.07.2019 00:00:00 (CEST)Kuggören, Zweden (2355): zicht: 11.07.2019 00:00:00 - 17.07.2019 00:00:00 (CEST)Kuggören, Zweden (2355): neerslag: 11.07.2019 00:00:00 - 17.07.2019 00:00:00 (CEST)
Datum & Tijd tt [°C] td [°C] ff [km/u] ff [kn] fx [km/u] fx [kn] dd ppp [hPa] vv [km] rr [mm]
17.07.2019 00:00:00 12,8 11,9 22 12 35 19 N 1012,0 38 0,0
16.07.2019 23:00:00 12,7 11,9 20 11 31 17 N 1011,9 12 0,9
16.07.2019 22:00:00 12,8 11,7 22 12 36 19 N 1011,7 17 0,7
16.07.2019 21:00:00 13,4 10,9 24 13 37 20 N 1011,3 47 0,0
16.07.2019 20:00:00 13,8 10,4 28 15 46 25 N 1011,2 49 0,0
16.07.2019 19:00:00 13,7 10,1 28 15 44 24 N 1010,9 47 0,0
16.07.2019 18:00:00 13,9 10,3 28 15 46 25 N 1010,7 41 0,0
16.07.2019 17:00:00 13,8 10,4 31 17 50 27 N 1010,3 35 0,0
16.07.2019 16:00:00 13,6 10,9 32 17 50 27 N 1010,0 30 0,0
16.07.2019 15:00:00 13,4 11,3 34 18 53 29 N 1009,7 29 0,2
16.07.2019 14:00:00 12,6 11,5 37 20 58 31 N 1009,2 9 0,4
16.07.2019 13:00:00 12,9 11,3 41 22 55 30 N 1008,6 23 0,1
16.07.2019 12:00:00 12,4 11,6 37 20 61 33 N 1008,1 3,3 0,3
16.07.2019 11:00:00 12,7 11,4 43 23 62 33 NNO 1007,5 9 0,0
16.07.2019 10:00:00 12,9 11,6 41 22 55 30 NNO 1006,8 15 0,0
16.07.2019 09:00:00 12,8 11,9 44 24 61 33 NO 1006,0 8 0,0
16.07.2019 08:00:00 13,6 12,2 51 27 68 37 NNO 1004,8 17 0,0
16.07.2019 07:00:00 13,0 12,1 57 31 79 43 NO 1003,3 32 1,4
16.07.2019 06:00:00 12,4 11,9 52 28 79 43 N 1001,9 1,8 4,8
16.07.2019 05:00:00 12,7 12,1 52 28 70 38 N 1002,4 2,6 7,4
16.07.2019 04:00:00 11,7 10,9 35 19 48 26 NW 1003,4 3,5 4,8
16.07.2019 03:00:00 11,4 10,6 28 15 44 24 NW 1004,6 7 1,3
16.07.2019 02:00:00 11,9 10,5 34 18 46 25 NNW 1005,4 10 0,3
16.07.2019 01:00:00 11,8 10,0 32 17 46 25 NNW 1006,0 18 0,8
16.07.2019 00:00:00 12,1 10,3 22 12 39 21 N 1006,5 16 0,2
15.07.2019 23:00:00 12,6 10,0 25 14 33 18 NNW 1007,0 42 0,0
15.07.2019 22:00:00 13,4 9,1 13 7 24 13 N 1007,3 43 0,0
15.07.2019 21:00:00 13,9 8,3 8 5 14 8 N 1007,5 50 0,0
15.07.2019 20:00:00 14,6 7,2 8 4 10 5 NNW 1007,7 50 0,0
15.07.2019 19:00:00 15,0 7,8 6 3 10 5 N 1008,2 50 0,0
15.07.2019 18:00:00 14,8 9,0 4 2 11 6 W 1008,6 37 0,0
15.07.2019 17:00:00 13,9 8,9 8 4 13 7 ZZO 1009,0 46 0,0
15.07.2019 16:00:00 14,4 7,9 9 5 15 8 O 1009,1 50 0,0
15.07.2019 15:00:00 14,7 7,3 8 5 13 7 O 1009,4 46 0,0
15.07.2019 14:00:00 14,0 7,1 10 5 17 9 ONO 1009,6 50 0,0
15.07.2019 13:00:00 14,0 7,3 16 8 23 12 NNW 1009,8 50 0,0
15.07.2019 12:00:00 13,3 6,6 16 9 25 14 NNW 1010,3 50 0,0
15.07.2019 11:00:00 13,1 6,4 21 12 31 17 NNW 1010,5 50 0,0
15.07.2019 10:00:00 13,0 5,9 15 8 29 15 NW 1010,8 50 0,0
15.07.2019 09:00:00 13,0 6,1 20 11 36 19 NW 1010,9 50 0,0
15.07.2019 08:00:00 12,8 6,2 23 12 37 20 NW 1011,3 50 0,0
15.07.2019 07:00:00 12,7 6,7 20 11 26 14 NNW 1011,4 50 0,0
15.07.2019 06:00:00 12,8 7,0 14 8 33 18 NW 1011,7 50 0,0
15.07.2019 05:00:00 13,1 7,1 27 15 39 21 NW 1011,8 50 0,0
15.07.2019 04:00:00 13,5 8,6 32 17 45 24 NNW 1011,9 50 0,0
15.07.2019 03:00:00 14,4 8,6 31 17 38 20 NNW 1012,3 50 0,0
15.07.2019 02:00:00 15,1 9,9 26 14 31 17 NNW 1012,1 50 0,0
15.07.2019 01:00:00 13,8 10,8 4 2 14 8 W 1012,0 50 0,0
15.07.2019 00:00:00 14,6 11,4 4 2 10 6 ZZO 1012,2 50 0,0
14.07.2019 23:00:00 14,7 12,2 8 4 12 6 ZZO 1012,5 50 0,0
14.07.2019 22:00:00 15,3 12,4 9 5 13 7 Z 1012,3 50 0,0
14.07.2019 21:00:00 15,4 12,0 13 7 17 9 Z 1012,2 50 0,0
14.07.2019 20:00:00 15,9 12,3 9 5 18 10 Z 1012,6 50 0,0
14.07.2019 19:00:00 16,0 11,8 14 8 20 11 Z 1012,7 50 0,0
14.07.2019 18:00:00 16,2 11,6 15 8 22 12 Z 1013,1 50 0,0
14.07.2019 17:00:00 15,8 11,0 14 8 18 10 ZZO 1012,8 46 0,0
14.07.2019 16:00:00 15,8 10,8 14 7 16 9 Z 1013,0 46 0,0
14.07.2019 15:00:00 16,0 11,2 11 6 16 9 ZZO 1013,2 50 0,0
14.07.2019 14:00:00 16,3 11,2 12 6 18 10 ZO 1013,4 38 0,0
14.07.2019 13:00:00 15,8 11,6 16 8 18 10 ZZO 1013,5 43 0,0
14.07.2019 12:00:00 16,1 10,8 11 6 14 8 ZO 1013,6 33 0,0
14.07.2019 11:00:00 16,6 11,1 13 7 16 9 O 1013,6 32 0,0
14.07.2019 10:00:00 16,9 10,0 8 5 18 10 NNW 1013,6 43 0,0
14.07.2019 09:00:00 15,4 10,6 15 8 24 13 NNW 1013,6 45 0,0
14.07.2019 08:00:00 14,3 11,5 14 8 19 10 NNW 1013,5 50 0,0
14.07.2019 07:00:00 13,8 10,8 15 8 18 10 NNW 1013,5 37 0,0
14.07.2019 06:00:00 12,5 10,0 7 4 11 6 NW 1013,3 50 0,0
14.07.2019 05:00:00 13,0 10,5 2 1 10 5 WNW 1013,1 50 0,0
14.07.2019 04:00:00 11,8 9,9 0 0 7 4 N 1013,1 47 0,0
14.07.2019 03:00:00 11,2 8,2 0 0 3 2 N 1013,3 50 0,0
14.07.2019 02:00:00 11,3 7,4 2 1 5 3 Z 1013,5 50 0,0
14.07.2019 01:00:00 11,8 6,5 4 2 5 3 ZZW 1013,7 50 0,0
14.07.2019 00:00:00 12,6 7,5 5 3 7 4 WZW 1013,8 50 0,0
13.07.2019 23:00:00 13,6 10,0 3 2 8 4 Z 1013,6 50 0,0
13.07.2019 22:00:00 15,2 10,6 6 3 8 5 ZZO 1013,4 50 0,0
13.07.2019 21:00:00 15,7 10,9 6 3 8 5 Z 1013,1 50 0,0
13.07.2019 20:00:00 15,9 11,7 7 4 9 5 ZZO 1013,0 50 0,0
13.07.2019 19:00:00 16,1 11,5 8 4 11 6 ZO 1012,7 39 0,0
13.07.2019 18:00:00 16,7 11,8 6 3 10 5 O 1012,7 44 0,0
13.07.2019 17:00:00 16,7 12,0 4 2 9 5 O 1012,6 39 0,0
13.07.2019 16:00:00 16,0 12,2 6 3 9 5 ONO 1012,7 37 0,0
13.07.2019 15:00:00 16,8 12,1 8 4 12 6 NO 1012,4 41 0,0
13.07.2019 14:00:00 16,8 11,5 4 2 10 5 ONO 1012,2 35 0,0
13.07.2019 13:00:00 17,4 12,1 9 5 21 11 NO 1012,0 32 0,0
13.07.2019 12:00:00 18,0 11,3 19 10 24 13 NO 1011,8 35 0,0
13.07.2019 11:00:00 17,8 11,4 19 10 22 12 NO 1011,5 36 0,0
13.07.2019 10:00:00 16,9 11,8 6 4 10 6 NO 1011,4 37 0,0
13.07.2019 09:00:00 16,2 11,8 4 2 10 5 O 1011,0 39 0,0
13.07.2019 08:00:00 15,9 11,9 7 4 14 7 NNW 1011,1 50 0,0
13.07.2019 07:00:00 15,8 10,8 4 2 18 10 W 1011,0 50 0,0
13.07.2019 06:00:00 14,6 10,0 12 7 19 10 W 1010,8 41 0,0
13.07.2019 05:00:00 12,9 9,3 0 0 6 3 N 1010,9 45 0,0
13.07.2019 04:00:00 12,0 10,1 5 3 12 6 WNW 1011,2 23 0,0
13.07.2019 03:00:00 11,2 8,9 5 3 11 6 WZW 1011,1 39 0,0
13.07.2019 02:00:00 11,6 8,8 6 3 8 5 W 1011,2 50 0,0
13.07.2019 01:00:00 12,2 9,9 0 0 6 3 N 1011,4 47 0,0
13.07.2019 00:00:00 12,0 9,6 3 2 5 3 ZZW 1011,7 45 0,0
12.07.2019 23:00:00 12,8 10,0 0 0 5 3 N 1011,4 50 0,0
12.07.2019 22:00:00 12,9 9,9 2 1 7 4 Z 1011,4 50 0,0
12.07.2019 21:00:00 13,3 9,4 5 3 17 9 Z 1011,2 50 0,0
12.07.2019 20:00:00 13,8 9,8 11 6 14 8 Z 1011,0 46 0,0
12.07.2019 19:00:00 14,2 8,8 12 6 19 10 ZZO 1011,0 47 0,0
12.07.2019 18:00:00 14,5 8,9 16 9 22 12 ZZO 1010,9 50 0,0
12.07.2019 17:00:00 14,7 9,7 18 10 22 12 ZZO 1011,0 47 0,0
12.07.2019 16:00:00 14,4 8,6 21 12 26 14 ZZO 1011,3 48 0,0
12.07.2019 15:00:00 14,6 9,0 24 13 27 14 ZZO 1011,2 42 0,0
12.07.2019 14:00:00 14,6 9,6 22 12 27 14 ZZO 1011,1 34 0,0
12.07.2019 13:00:00 14,5 9,7 22 12 27 15 Z 1011,2 40 0,0
12.07.2019 12:00:00 14,4 9,2 21 11 26 14 ZZO 1011,0 39 0,0
12.07.2019 11:00:00 14,3 9,5 19 11 24 13 Z 1011,1 39 0,0
12.07.2019 10:00:00 13,7 7,0 19 10 24 13 Z 1011,3 46 0,0
12.07.2019 09:00:00 13,1 8,6 16 9 19 11 ZZO 1011,2 45 0,0
12.07.2019 08:00:00 13,2 8,9 5 3 8 5 ZZO 1011,4 20 0,1
12.07.2019 07:00:00 13,1 8,0 3 1 7 4 O 1011,4 47 0,0
12.07.2019 06:00:00 12,6 8,1 5 3 8 4 Z 1011,0 50 0,0
12.07.2019 05:00:00 11,6 6,9 5 3 6 3 Z 1011,1 50 0,0
12.07.2019 04:00:00 11,9 5,5 4 2 6 3 W 1010,9 50 0,0
12.07.2019 03:00:00 10,8 5,3 0 0 11 6 N 1011,1 50 0,0
12.07.2019 02:00:00 11,7 5,1 6 3 12 6 WZW 1011,2 50 0,0
12.07.2019 01:00:00 12,3 5,0 8 4 13 7 W 1011,4 50 0,0
12.07.2019 00:00:00 12,9 2,7 8 5 13 7 W 1011,5 50 0,0
11.07.2019 23:00:00 13,0 3,6 9 5 13 7 W 1011,5 50 0,0
11.07.2019 22:00:00 14,0 4,0 5 3 8 4 W 1011,7 50 0,0
11.07.2019 21:00:00 14,9 4,0 5 3 9 5 NW 1011,7 47 0,0
11.07.2019 20:00:00 14,9 4,0 4 2 13 7 N 1011,9 45 0,0
11.07.2019 19:00:00 14,8 5,8 9 5 15 8 NNW 1012,1 49 0,0
11.07.2019 18:00:00 14,3 7,1 5 3 14 7 NO 1012,4 46 0,0
11.07.2019 17:00:00 14,8 7,4 14 7 22 12 NO 1012,6 46 0,0
11.07.2019 16:00:00 14,8 8,5 19 10 28 15 NNO 1012,7 41 0,0
11.07.2019 15:00:00 14,2 8,6 25 13 32 17 NO 1012,8 44 0,0
11.07.2019 14:00:00 14,5 9,1 28 15 36 19 NNO 1012,6 35 0,0
11.07.2019 13:00:00 13,6 8,9 27 15 41 22 N 1012,7 50 0,0
11.07.2019 12:00:00 13,8 8,4 26 14 42 23 N 1012,8 38 0,0
11.07.2019 11:00:00 13,4 8,2 29 16 43 23 N 1012,6 44 0,0
11.07.2019 10:00:00 13,4 8,5 27 15 44 24 N 1012,5 43 0,0
11.07.2019 09:00:00 13,3 7,9 29 15 42 23 N 1012,2 43 0,0
11.07.2019 08:00:00 13,3 8,8 27 14 39 21 N 1011,9 49 0,0
11.07.2019 07:00:00 13,4 8,2 25 14 32 18 N 1011,9 46 0,0
11.07.2019 06:00:00 12,7 9,5 21 12 31 17 N 1012,0 48 0,0
11.07.2019 05:00:00 12,5 9,1 25 13 32 17 NNW 1012,0 49 0,0
11.07.2019 04:00:00 12,4 9,2 25 14 29 16 NNW 1012,1 49 0,0
11.07.2019 03:00:00 11,6 9,2 14 8 23 13 NW 1012,5 50 0,0
11.07.2019 02:00:00 12,2 9,4 21 11 24 13 NNW 1012,6 50 0,0
11.07.2019 01:00:00 12,4 8,9 15 8 20 11 N 1012,8 50 0,0
11.07.2019 00:00:00 12,4 8,9 14 7 18 10 N 1013,0 50 0,0

tt = temperatuur
td = dauwpunt
ff = windsnelheid
fx = windstoten
dd = windrichting
ppp = luchtdruk
vv = zicht
rr = neerslag

Weerstations in de omgeving